CW8633 Weather Reports


Display with metric or nautical units.
time (UTC)temp
F
wind
direction
speed
MPH
gust
MPH
rain 1hr
in
rain 24hr
in
rain mn
in
humidity
%
barometer
mb
20260506154727 46 176 3.0 8.0 0.00 0.08 0.00 50 1018.3
20260506153731 46 172 2.0 5.0 0.00 0.08 0.00 51 1018.1
20260506152723 45 184 4.0 7.0 0.00 0.08 0.00 49 1018.0
20260506151731 45 144 2.0 4.0 0.00 0.08 0.00 48 1018.0
20260506150739 44 145 3.0 5.0 0.00 0.08 0.00 52 1017.9
20260506145730 44 157 5.0 7.0 0.00 0.20 0.00 53 1017.7
20260506144723 43 117 1.0 6.0 0.00 0.20 0.00 56 1017.7
20260506143750 42 132 3.0 7.0 0.00 0.20 0.00 55 1017.7
20260506142736 41 144 4.0 7.0 0.00 0.20 0.00 56 1017.7
20260506141725 41 115 3.0 6.0 0.00 0.20 0.00 57 1017.5
20260506140734 41 9 2.0 3.0 0.00 0.20 0.00 57 1017.4
20260506135728 40 5 1.0 3.0 0.00 0.26 0.00 58 1017.2
20260506134735 39 360 1.0 3.0 0.00 0.26 0.00 60 1016.9
20260506133723 39 360 1.0 4.0 0.00 0.26 0.00 60 1016.9
20260506132736 38 304 2.0 5.0 0.00 0.26 0.00 59 1016.7
20260506131724 38 298 1.0 4.0 0.00 0.26 0.00 57 1016.4
20260506130731 38 299 3.0 5.0 0.00 0.26 0.00 55 1016.2
20260506125726 39 360 1.0 5.0 0.00 0.36 0.00 51 1016.0
20260506124756 40 355 3.0 6.0 0.00 0.36 0.00 47 1015.9
20260506123742 40 339 2.0 11.0 0.00 0.36 0.00 47 1015.8
20260506122729 40 16 6.0 11.0 0.00 0.36 0.00 46 1015.6
20260506121737 40 16 5.0 15.0 0.00 0.36 0.00 47 1015.4
20260506120725 40 13 5.0 12.0 0.00 0.36 0.00 46 1015.2
20260506115741 40 360 3.0 6.0 0.00 0.47 0.00 50 1015.2
20260506114749 39 5 3.0 5.0 0.00 0.47 0.00 55 1015.2
20260506113735 40 348 0.0 4.0 0.00 0.47 0.00 57 1015.1
20260506112723 40 346 2.0 3.0 0.00 0.47 0.00 57 1014.9
20260506111733 40 13 1.0 5.0 0.00 0.47 0.00 56 1014.8
20260506110741 41 23 2.0 4.0 0.00 0.47 0.00 56 1014.5
20260506105735 41 11 2.0 4.0 0.00 0.47 0.00 54 1014.5
20260506104744 42 9 1.0 6.0 0.00 0.47 0.00 52 1014.3
20260506103734 42 5 2.0 8.0 0.00 0.47 0.00 52 1014.3
20260506102742 42 10 4.0 8.0 0.00 0.47 0.00 55 1014.0
20260506101731 42 12 2.0 5.0 0.00 0.47 0.00 59 1014.0
20260506100739 43 5 2.0 4.0 0.00 0.47 0.00 59 1014.0
20260506095738 44 5 1.0 3.0 0.00 0.47 0.00 59 1014.0
20260506094724 44 5 1.0 2.0 0.00 0.47 0.00 58 1013.9
20260506093733 45 5 1.0 2.0 0.00 0.47 0.00 57 1013.8
20260506092722 46 5 1.0 3.0 0.00 0.47 0.00 55 1013.9
20260506091734 47 5 1.0 5.0 0.00 0.47 0.00 52 1013.8
20260506090722 48 355 3.0 9.0 0.00 0.47 0.00 49 1013.8
20260506085736 48 324 4.0 8.0 0.00 0.47 0.00 51 1013.8
20260506084722 49 335 4.0 10.0 0.00 0.47 0.00 50 1013.7
20260506083733 50 340 5.0 10.0 0.00 0.47 0.00 47 1013.5
20260506082739 50 11 5.0 13.0 0.00 0.47 0.00 41 1013.3
20260506081725 51 5 4.0 13.0 0.00 0.47 0.00 42 1013.2
20260506080733 51 29 6.0 19.0 0.00 0.47 0.00 43 1013.2
20260506072726 50 12 5.0 21.0 0.00 0.47 0.00 53 1012.2
20260506071737 51 61 12.0 25.0 0.00 0.47 0.00 50 1012.0
20260506070744 52 57 16.0 25.0 0.00 0.47 0.00 50 1012.0
20260506061741 52 355 6.0 13.0 0.00 0.47 0.00 48 1010.1
20260506060723 53 349 7.0 11.0 0.00 0.47 0.00 50 1009.8
20260506050727 53 17 3.0 7.0 0.00 0.47 0.47 71 1009.0
20260506044731 54 25 0.0 3.0 0.00 0.47 0.47 65 1008.9
20260506043736 55 14 0.0 5.0 0.00 0.47 0.47 63 1008.7
20260506042723 55 9 2.0 4.0 0.00 0.47 0.47 61 1008.4
20260506041730 55 63 5.0 9.0 0.00 0.47 0.47 61 1008.3
20260506040741 55 80 4.0 6.0 0.00 0.47 0.47 67 1008.2
20260506035733 54 13 2.0 5.0 0.00 0.47 0.47 70 1008.2
20260506034739 54 157 2.0 7.0 0.00 0.47 0.47 71 1007.9
20260506033726 55 128 4.0 8.0 0.00 0.47 0.47 70 1007.9
20260506032738 55 123 5.0 8.0 0.00 0.47 0.47 70 1007.8
20260506031725 55 161 4.0 6.0 0.00 0.47 0.47 69 1007.7
20260506030730 56 180 3.0 4.0 0.00 0.47 0.47 70 1007.6
20260506025723 56 183 2.0 8.0 0.00 0.47 0.47 70 1007.6
20260506024749 56 153 3.0 5.0 0.00 0.47 0.47 70 1007.5
20260506023736 57 153 2.0 5.0 0.00 0.47 0.47 70 1007.2
20260506022723 57 161 1.0 3.0 0.00 0.47 0.47 70 1007.1
20260506021730 58 161 3.0 5.0 0.00 0.47 0.47 70 1006.9
20260506020737 58 240 2.0 4.0 0.00 0.47 0.47 67 1006.8
20260506015735 59 252 2.0 5.0 0.00 0.47 0.47 66 1006.7
20260506014740 59 255 3.0 9.0 0.00 0.47 0.47 64 1006.5
20260506013727 60 224 4.0 8.0 0.00 0.47 0.47 61 1006.4
20260506012735 61 242 4.0 10.0 0.00 0.47 0.47 60 1006.4
20260506011728 61 208 3.0 6.0 0.00 0.47 0.47 59 1006.5
20260506010735 61 219 3.0 6.0 0.00 0.47 0.47 60 1006.4
20260506005730 61 227 4.0 7.0 0.00 0.47 0.47 58 1006.3
20260506004737 61 240 4.0 9.0 0.00 0.47 0.47 59 1006.3
20260506003748 61 165 5.0 9.0 0.00 0.47 0.47 58 1006.2
20260506002735 61 199 5.0 7.0 0.00 0.47 0.47 58 1006.2
20260506001722 61 211 5.0 8.0 0.00 0.47 0.47 57 1006.2
20260506000722 61 232 5.0 9.0 0.00 0.47 0.47 56 1006.3
20260505235721 61 244 7.0 10.0 0.00 0.47 0.47 57 1006.2
20260505234727 61 195 4.0 9.0 0.00 0.47 0.47 56 1006.3
20260505233734 61 205 6.0 16.0 0.00 0.47 0.47 56 1006.3
20260505232722 61 185 4.0 9.0 0.00 0.47 0.47 55 1006.3
20260505231733 61 221 5.0 9.0 0.00 0.47 0.47 56 1006.5
20260505230758 60 197 5.0 10.0 0.00 0.47 0.47 58 1006.5
20260505225730 60 187 7.0 12.0 0.00 0.47 0.47 58 1006.6
20260505224738 60 232 6.0 11.0 0.00 0.47 0.47 58 1006.6
20260505223724 60 192 6.0 10.0 0.00 0.47 0.47 60 1006.7
20260505222736 59 215 6.0 11.0 0.00 0.47 0.47 62 1006.8
20260505221723 59 189 7.0 13.0 0.00 0.47 0.47 62 1006.8
20260505220731 59 224 7.0 12.0 0.00 0.47 0.47 63 1007.0
20260505215742 58 184 9.0 14.0 0.00 0.47 0.47 64 1007.2
20260505214730 58 200 9.0 18.0 0.00 0.47 0.47 68 1007.4
20260505213736 58 213 9.0 14.0 0.00 0.47 0.47 68 1007.6
20260505212722 57 156 5.0 14.0 0.00 0.47 0.47 68 1007.8
20260505211747 57 198 10.0 15.0 0.00 0.47 0.47 68 1008.0
20260505210734 57 238 7.0 12.0 0.00 0.47 0.47 71 1008.2
20260505205730 56 196 9.0 16.0 0.00 0.47 0.47 71 1008.2
20260505204736 56 183 7.0 12.0 0.00 0.47 0.47 71 1008.3
20260505203723 56 212 6.0 11.0 0.00 0.47 0.47 74 1008.4
20260505202730 56 176 8.0 12.0 0.00 0.47 0.47 74 1008.6
20260505201739 56 212 8.0 12.0 0.00 0.47 0.47 75 1008.7
20260505200726 55 178 7.0 16.0 0.00 0.47 0.47 75 1008.6
20260505195739 55 202 10.0 17.0 0.00 0.47 0.47 77 1008.6
20260505194724 55 202 5.0 12.0 0.00 0.47 0.47 80 1008.7
20260505193734 54 221 7.0 14.0 0.00 0.47 0.47 80 1008.6
20260505192739 54 227 5.0 11.0 0.00 0.47 0.47 83 1008.8
20260505191725 53 175 9.0 13.0 0.00 0.47 0.47 83 1008.9
20260505190732 52 202 9.0 13.0 0.00 0.47 0.47 85 1009.1
20260505185730 52 191 8.0 13.0 0.00 0.47 0.47 85 1009.0
20260505184757 53 209 7.0 13.0 0.00 0.47 0.47 89 1009.0
20260505183801 52 202 8.0 10.0 0.01 0.47 0.47 88 1009.0
20260505182725 51 188 6.0 10.0 0.01 0.47 0.47 89 1009.1
20260505181728 50 193 6.0 8.0 0.03 0.47 0.47 91 1009.1
20260505180730 50 241 3.0 6.0 0.04 0.47 0.47 90 1009.3
20260505175729 49 190 3.0 4.0 0.05 0.47 0.47 90 1009.4
20260505174737 49 190 3.0 4.0 0.06 0.47 0.47 90 1009.4
20260505173725 49 232 1.0 3.0 0.06 0.46 0.46 89 1009.5
20260505172734 49 252 2.0 3.0 0.06 0.46 0.46 89 1009.5
20260505171746 49 324 0.0 3.0 0.04 0.44 0.44 89 1009.6
20260505170734 50 313 2.0 5.0 0.03 0.43 0.43 89 1009.5
20260505165725 50 340 1.0 4.0 0.02 0.42 0.42 89 1009.3
20260505164729 50 57 0.0 4.0 0.01 0.41 0.41 89 1009.1
20260505163736 50 55 2.0 4.0 0.00 0.40 0.40 88 1008.9
20260505162725 50 277 1.0 5.0 0.00 0.40 0.40 89 1008.8
20260505161733 50 316 3.0 8.0 0.00 0.40 0.40 88 1008.9
20260505160740 50 334 2.0 5.0 0.00 0.40 0.40 89 1008.8